Location: Bacharowice
(49.9333°N, 19.5833°E)
Time: 02:35:40
(UTC+00:00)

NOSS 3-4 (C) - Pass Details

Date: 11 May 2021
Orbit: 873 x 1339 km, 63.4° (Epoch: 06 May)

Event Time Altitude Azimuth Distance (km) Brightness Sun altitude
Rises 21:11:28 0° 314° (NW) 3,827 7.8 -19.3°
Reaches altitude 10° 21:14:06 10° 308° (NW) 2,936 6.9 -19.5°
Maximum altitude 21:20:39 43° 240° (WSW) 1,586 4.5 -19.8°
Enters shadow 21:24:13 27° 189° (S) 2,135 4.8 -20.0°
